Home   Weather   Stuart   Past weeks
Flag for USA

Past Weather in Stuart, Florida, USA — Yesterday and Last 2 Weeks

Now
86 °F

Thundershowers. Partly sunny.


Feels Like: 93 °F
Forecast: 87 / 79 °F
Wind: 10 mph from Southeast

Location: Witham Field Airport

Current Time: Jul 17, 2019 at 2:47:39 pm

Latest Report: Jul 17, 2019 at 1:47 pm


Visibility: 7 mi

Pressure: 30.15 "Hg

Humidity: 66%

Dew Point: 73 °F

Location of StuartLocation

Past Weather in Stuart — Graph

°F

Stuart Temperature Yesterday

Maximum temperature yesterday: 90 °F (at 12:48 pm)
Minimum temperature yesterday: 79 °F (at 6:15 am)
Average temperature yesterday: 83 °F

High & Low Weather Summary for the Past Weeks

 TemperatureHumidityPressure
High91 °F (Jul 2, 1:47 pm)94% (Jul 9, 1:55 am)30.17 "Hg (Jul 9, 1:55 am)
Low73 °F (Jul 9, 1:55 am)41% (Jul 12, 4:47 pm)29.92 "Hg (Jul 8, 6:48 pm)
Average81 °F77%30.05 "Hg
* Reported Jul 2 12:04 pm — Jul 17 12:47 pm, Stuart. Weather by CustomWeather, © 2019

Note: Actual official high and low records may vary slightly from our data, if they occured in-between our weather recording intervals... More about our weather records

Advertising

Stuart Weather History for the Previous 24 Hours

Scroll right to see more
 ConditionsComfort  
Time TempWeatherWind HumidityBarometerVisibility
12:47 pm
Wed, Jul 17
86 °FThundershowers. Partly sunny.9 mph66%30.17 "Hg7 mi
11:50 am86 °FScattered clouds.6 mph62%30.15 "Hg7 mi
10:50 am86 °FPartly sunny.6 mph66%30.16 "Hg7 mi
9:55 am86 °FPartly sunny.6 mph66%30.15 "Hg7 mi
8:55 am84 °FScattered clouds.6 mph70%30.14 "Hg7 mi
7:50 am81 °FPassing clouds.No wind79%30.14 "Hg7 mi
6:50 am77 °FPassing clouds.No wind89%30.12 "Hg7 mi
6:35 am77 °FClear.No wind83%30.12 "Hg10 mi
6:15 am77 °FClear.No wind83%30.12 "Hg10 mi
5:55 am79 °FClear.No wind79%30.11 "Hg10 mi
5:35 am79 °FClear.No wind79%30.10 "Hg10 mi
5:15 am79 °FClear.No wind79%30.10 "Hg10 mi
4:35 am79 °FClear.No wind79%30.10 "Hg10 mi
4:15 am79 °FClear.No wind79%30.10 "Hg10 mi
3:55 am79 °FClear.No wind79%30.10 "Hg10 mi
3:35 am79 °FClear.No wind79%30.10 "Hg10 mi
3:15 am79 °FClear.No wind79%30.10 "Hg10 mi
2:55 am79 °FClear.No wind84%30.11 "Hg10 mi
2:35 am79 °FClear.No wind84%30.11 "Hg10 mi
2:15 am81 °FClear.No wind79%30.12 "Hg10 mi
1:55 am79 °FClear.No wind84%30.13 "Hg10 mi
1:15 am81 °FClear.No wind79%30.14 "Hg10 mi
12:55 am81 °FClear.No wind79%30.14 "Hg10 mi
12:35 am81 °FClear.No wind79%30.15 "Hg10 mi
12:15 am81 °FClear.5 mph79%30.15 "Hg10 mi
11:55 pm
Tue, Jul 16
81 °FClear.3 mph79%30.15 "Hg10 mi
11:35 pm81 °FClear.3 mph79%30.15 "Hg10 mi
11:15 pm82 °FClear.5 mph74%30.15 "Hg10 mi
10:55 pm81 °FClear.No wind79%30.15 "Hg10 mi
10:35 pm81 °FClear.3 mph79%30.15 "Hg10 mi
10:15 pm81 °FClear.5 mph79%30.14 "Hg10 mi
9:55 pm82 °FClear.3 mph74%30.15 "Hg10 mi
7:47 pm84 °FScattered clouds.9 mph70%30.11 "Hg7 mi
6:47 pm90 °FScattered clouds.12 mph59%30.10 "Hg7 mi
5:47 pm90 °FThundershowers. Scattered clouds.12 mph59%30.10 "Hg7 mi
4:47 pm90 °FThundershowers. Scattered clouds.12 mph63%30.10 "Hg7 mi
3:47 pm90 °FThundershowers. Scattered clouds.12 mph63%30.12 "Hg7 mi
2:47 pm90 °FThundershowers. Scattered clouds.12 mph63%30.13 "Hg7 mi
Weather by CustomWeather, © 2019

See weather overview